[keps] orb06341.2l.amsat
Ray Hoad
r.hoad at att.net
Thu Dec 7 17:49:24 PST 2006
SB KEPS @ AMSAT $ORB06341.N
2Line Orbital Elements 06341.AMSAT
HR AMSAT ORBITAL ELEMENTS FOR AMATEUR SATELLITES IN NASA FORMAT
FROM WA5QGD FORT WORTH,TX December 7, 2006
Send SUBSCRIBE KEPS/UNSUBSCRIBE KEPS to majordomo at amsat.org only
BID: ORB06341.N
DECODE 2-LINE ELSETS WITH THE FOLLOWING KEY:
1 AAAAAU 00 0 0 BBBBB.BBBBBBBB .CCCCCCCC 00000-0 00000-0 0 DDDZ
2 AAAAA EEE.EEEE FFF.FFFF GGGGGGG HHH.HHHH III.IIII JJ.JJJJJJJJKKKKKZ
KEY: A-CATALOGNUM B-EPOCHTIME C-DECAY D-ELSETNUM E-INCLINATION F-RAAN
G-ECCENTRICITY H-ARGPERIGEE I-MNANOM J-MNMOTION K-ORBITNUM Z-CHECKSUM
TO ALL RADIO AMATEURS BT
AO-07
1 07530U 74089B 06340.64830627 -.00000028 00000-0 10000-3 0 7478
2 07530 101.5458 019.1176 0011973 271.0797 088.8902 12.53571891466991
UO-11
1 14781U 84021B 06340.64834882 .00000029 00000-0 11259-4 0 02437
2 14781 098.2015 354.5028 0010119 072.8942 287.3348 14.79493592221260
RS-10/11
1 18129U 87054A 06341.65342555 .00000040 00000-0 27662-4 0 1638
2 18129 082.9262 199.8415 0011833 339.3434 020.7239 13.72781745974956
RS-15
1 23439U 94085A 06340.96497079 -.00000039 00000-0 10597-3 0 00057
2 23439 064.8201 317.7904 0164951 224.4741 134.2838 11.27552104492029
FO-29
1 24278U 96046B 06340.92513935 -.00000091 00000-0 -54851-4 0 03890
2 24278 098.5223 321.6549 0350019 221.5881 135.8149 13.52925407508900
SO-33
1 25509U 98061B 06340.82562120 -.00000064 00000-0 -26758-4 0 08111
2 25509 031.4301 233.3089 0355155 185.7060 173.9452 14.28138000423731
VO-52
1 28650U 05017B 06341.73860992 .00000079 00000-0 16809-4 0 4980
2 28650 097.8564 051.5337 0027876 155.0462 205.2080 14.81223440 86076
AO-16
1 20439U 90005D 06341.67602206 .00000046 00000-0 32302-4 0 9124
2 20439 098.1889 341.8829 0011787 040.8808 319.3242 14.31742762881143
LO-19
1 20442U 90005G 06340.55882417 .00000010 00000-0 18903-4 0 08444
2 20442 098.1823 350.3423 0012717 043.3570 316.8615 14.31984356881129
AO-27
1 22825U 93061C 06340.46235104 -.00000008 00000-0 13180-4 0 05639
2 22825 098.3050 314.0276 0009220 108.8307 251.3889 14.29192128687960
IO-26
1 22826U 93061D 06340.68275038 .00000036 00000-0 30003-4 0 02566
2 22826 098.2990 315.3863 0009735 105.5826 254.6423 14.29437338688078
PO-28
1 22829U 93061G 06341.71220674 -.00000036 00000-0 18371-5 0 5390
2 22829 098.2891 317.5581 0010694 081.6182 278.6200 14.30134401688444
GO-32
1 25397U 98043D 06340.65652697 -.00000074 00000-0 -14514-4 0 01768
2 25397 098.4449 031.0082 0002092 077.4563 282.6841 14.23115778436772
MO-46
1 26548U 00057D 06340.74011447 .00000021 00000-0 20801-4 0 06678
2 26548 064.5582 058.0032 0036294 223.3747 136.4514 14.83060824335008
NO-44
1 26931U 01043C 06340.82025732 -.00000200 00000-0 -46046-4 0 4668
2 26931 067.0523 283.0072 0005018 267.3368 092.7177 14.29462759270604
SO-50
1 27607U 02058C 06340.41808627 .00000057 00000-0 30884-4 0 1874
2 27607 064.5575 310.2662 0035454 071.3175 289.1781 14.71202464212766
CO-55
1 27844U 03031E 06341.72542818 .00000082 00000-0 58790-4 0 9109
2 27844 098.7201 347.6412 0009238 286.0867 073.9275 14.20476228178296
CO-57
1 27848U 03031J 06340.52429124 .00000077 00000-0 56540-4 0 08759
2 27848 098.7191 345.7276 0009270 293.4287 066.5908 14.20300301178108
AO-51
1 28375U 04025K 06340.68325508 .00000044 00000-0 26043-4 0 06956
2 28375 098.1408 024.6437 0085197 045.6467 315.1663 14.40545606128006
CO-56
1 28941U 06005C 06341.77973192 .00031374 26798-5 36803-3 0 2805
2 28941 098.1572 017.4832 0254819 226.5530 131.4261 15.31547386 44059
HO-59
1 29484U 06041F 06341.37813546 .00031466 27961-5 27850-3 0 951
2 29484 098.3113 359.0388 0260672 226.0451 131.9327 15.36286557 11481
NOAA-10
1 16969U 86073A 06340.59512730 -.00000071 00000-0 -10546-4 0 04513
2 16969 098.7550 352.5696 0012691 012.2345 347.9130 14.27310902051753
NOAA-11
1 19531U 88089A 06340.77585346 .00000061 00000-0 54654-4 0 04147
2 19531 098.8230 067.2832 0011329 215.3753 144.6652 14.14828329938944
NOAA-12
1 21263U 91032A 06340.84392076 -.00000057 00000-0 -50278-5 0 09116
2 21263 098.7422 333.5139 0012187 308.4580 051.5467 14.25516866808842
MET-3/5
1 21655U 91056A 06340.96923118 .00000051 00000-0 10000-3 0 02388
2 21655 082.5523 138.7483 0013121 333.7045 026.3410 13.17008495736104
MET-2/21
1 22782U 93055A 06340.72158420 .00000053 00000-0 33928-4 0 06887
2 22782 082.5473 194.5847 0023674 057.9866 302.3579 13.83613139669900
OKEAN-4
1 23317U 94066A 06341.82816477 .00000431 00000-0 50568-4 0 1244
2 23317 082.5378 115.0552 0022702 159.3135 200.9033 14.82436724655701
NOAA-14
1 23455U 94089A 06340.85329942 .00000261 00000-0 16206-3 0 04064
2 23455 099.0183 040.7782 0008659 283.0991 076.9202 14.13684238615467
SICH-1
1 23657U 95046A 06340.79207499 .00000060 00000-0 46114-5 0 09286
2 23657 082.5291 256.9112 0024447 152.2626 207.9896 14.81422722607549
NOAA-15
1 25338U 98030A 06340.94240088 .00000098 00000-0 60668-4 0 07792
2 25338 098.5231 338.1394 0009955 227.6086 132.4234 14.24615297445318
RESURS
1 25394U 98043A 06340.70052281 .00000015 00000-0 24648-4 0 05298
2 25394 098.4712 037.5706 0002276 047.0844 313.0523 14.24119968436957
FENGYUN1
1 25730U 99025A 06341.54196582 -.00000173 00000-0 -71935-4 0 8986
2 25730 098.6403 327.6595 0014764 010.3215 349.8274 14.11817623390474
OKEAN-0
1 25860U 99039A 06340.63964287 .00000138 00000-0 28422-4 0 09229
2 25860 097.7302 346.9170 0000634 041.1887 318.9364 14.73411247397145
NOAA-16
1 26536U 00055A 06340.85895678 -.00000136 00000-0 -48991-4 0 01710
2 26536 099.0920 309.7148 0010598 358.5159 001.5987 14.12386994319958
NOAA-17
1 27453U 02032A 06340.83436397 -.00000045 00000-0 -71813-6 0 01915
2 27453 098.6066 049.5416 0010932 294.7857 065.2178 14.23832810231348
NOAA-18
1 28654U 05018A 06340.80636906 .00000158 00000-0 11178-3 0 07487
2 28654 098.8092 280.5320 0015055 092.4240 267.8643 14.11016907079721
HUBBLE
1 20580U 90037B 06340.41294697 .00000572 00000-0 31712-4 0 07641
2 20580 028.4684 007.0901 0003946 209.9094 150.1270 15.00147221710985
UARS
1 21701U 91063B 06340.72678109 .00007633 00000-0 13642-3 0 09643
2 21701 056.9768 067.7407 0099407 177.6323 182.5225 15.45837349835968
PO-34
1 25520U 98064B 06340.34270884 .00000777 00000-0 28699-4 0 6266
2 25520 028.4610 319.3172 0004955 312.7490 047.2686 15.16864661448218
ISS
1 25544U 98067A 06341.60845907 .00022742 00000-0 14774-3 0 2146
2 25544 051.6352 013.3720 0023824 308.1438 191.9096 15.75492771460526
OO-38
1 26063U 00004C 06340.83728858 .00000026 00000-0 29140-4 0 07854
2 26063 100.2083 303.0975 0036925 341.7201 018.2649 14.35788092359456
NO-45
1 26932U 01043D 06340.96535895 -.00000034 00000-0 18904-4 0 04857
2 26932 067.0519 282.3680 0003765 244.9086 115.1616 14.29542606270666
UWE-1
1 28892U 05043C 06341.72777150 .00000106 00000-0 32126-4 0 6229
2 28892 098.1474 236.9565 0017497 353.3354 006.7606 14.59433429 59287
CO-58
1 28895U 05043F 06340.75307572 .00000091 00000-0 28940-4 0 6032
2 28895 098.1512 236.1403 0018157 356.5309 003.5758 14.59482769 59021
NCUBE2
1 28897U 05043H 06340.23204297 .00000237 00000-0 59461-4 0 01553
2 28897 098.1473 235.6000 0017629 359.8381 000.2812 14.59641011051221
/EX
More information about the Keps
mailing list